I1GXV Weather Reports


Display with metric or nautical units.
time (UTC)temp
F
wind
direction
speed
MPH
gust
MPH
rain 1hr
in
rain 24hr
in
rain mn
in
humidity
%
barometer
mb
20260505173008 53 38 1.0 6.0 0.09 0.65 0.65 98 986.6
20260505170011 53 29 3.0 7.0 0.08 0.61 0.61 98 986.7
20260505163009 53 29 3.0 9.0 0.05 0.56 0.56 98 987.0
20260505153014 53 37 2.0 9.0 0.00 0.51 0.51 97 987.0
20260505123008 53 32 5.0 7.0 0.00 0.51 0.51 95 987.6
20260505113008 53 40 5.0 8.0 0.03 0.51 0.51 93 987.9
20260505100009 54 48 4.0 9.0 0.01 0.47 0.47 94 987.9
20260505090009 54 38 3.0 7.0 0.03 0.46 0.46 96 987.9
20260505083007 53 40 3.0 13.0 0.02 0.44 0.44 96 987.8
20260505080008 53 37 6.0 18.0 0.06 0.43 0.43 96 987.4
20260505070008 53 11 0.0 0.0 0.18 0.37 0.37 96 987.9
20260505063007 53 298 0.0 0.0 0.17 0.29 0.29 95 987.4
20260505060007 53 283 0.0 0.0 0.13 0.19 0.19 94 987.5
20260505053011 53 281 0.0 0.0 0.09 0.12 0.12 93 987.1
20260505033012 57 273 0.0 0.0 0.00 0.00 0.00 77 986.8
20260505030011 58 272 0.0 0.0 0.00 0.00 0.00 71 986.6
20260505013009 58 274 0.0 0.0 0.00 0.00 0.00 75 987.7
20260505010009 58 273 0.0 0.0 0.00 0.00 0.00 74 988.2
20260505003011 59 267 0.0 0.0 0.00 0.00 0.00 72 988.7
20260505000012 58 265 0.0 0.0 0.00 0.00 0.00 74 989.1
20260504233010 58 264 0.0 0.0 0.00 0.00 0.00 73 989.2
20260504230012 59 259 0.0 0.0 0.00 0.00 0.00 72 989.6
20260504213010 60 258 0.0 0.0 0.00 0.00 0.00 68 990.2
20260504210009 62 266 0.0 0.0 0.00 0.00 0.00 64 990.5
20260504203009 63 266 0.0 0.0 0.00 0.00 0.00 60 990.5
20260504200010 63 274 0.0 0.0 0.00 0.00 0.00 56 990.4
20260504193009 64 273 0.0 0.0 0.00 0.00 0.00 56 989.9
20260504190011 65 274 0.0 0.0 0.00 0.00 0.00 52 989.9
20260504183010 65 277 0.0 0.0 0.00 0.00 0.00 52 989.6